Regional Weather Roundup
Issued by NWS

Home | Current Version | Previous Version | Graphics & Text | Print | Product List | Glossary Off
Versions: 1 2 3 4 5 6 7 8 9 10 11 12 13 14 15 16 17 18 19 20 21 22 23 24 25 26 27 28 29 30 31 32 33 34 35 36 37 38 39 40 41 42 43 44 45 46 47 48 49 50

000
ASUS43 KLSX 201907
RWRMO

WEATHER SUMMARY FOR MISSOURI
NATIONAL WEATHER SERVICE SPRINGFIELD MO
200 PM CDT MON APR 20 2015

NOTE: "FAIR" INDICATES FEW OR NO CLOUDS BELOW 12,000 FEET WITH NO
       SIGNIFICANT WEATHER AND/OR OBSTRUCTIONS TO VISIBILITY.
       CURRENT SKY AND/OR WEATHER CONDITIONS ARE NOT AVAILABLE FOR
       CHILLICOTHE AND FARMINGTON.

MOZ001>031-035>038-043-044-053-054-202000-
...NORTHERN AND WESTERN MISSOURI...

CITY           SKY/WX    TMP DP  RH WIND       PRES   REMARKS
KANSAS CTY INT MOSUNNY   54  28  36 NW25G32   29.83F
KANSAS C DTWN  SUNNY     59  28  30 W17G25    29.83F
LEE`S SUMMIT   PTSUNNY   57  29  34 W17G29    29.84F
ST JOSEPH      MOSUNNY   55  27  34 NW21G35   29.83F
CHILLICOTHE      N/A     55  33  43 NW10G25   29.79F
KIRKSVILLE     LGT RAIN  49  34  56 W15G29    29.75S

$$
MOZ066>068-077>081-088>096-101>105-202000-
...SOUTHWEST MISSOURI...

CITY           SKY/WX    TMP DP  RH WIND       PRES   REMARKS
SPRINGFIELD    PTSUNNY   57  32  38 NW14G28   29.88S
JOPLIN         MOSUNNY   58  35  42 NW18G26   29.93S

$$
MOZ032>034-039>042-045>050-055>058-069>072-202000-
...CENTRAL MISSOURI...

CITY           SKY/WX    TMP DP  RH WIND       PRES   REMARKS
COLUMBIA       CLOUDY    54  34  46 NW15G25   29.79S
JEFFERSON CITY CLOUDY    54  32  43 W17G29    29.80S
ROLLA          PTSUNNY   55  30  38 W20G31    29.78R
SEDALIA        PTSUNNY   55  34  45 W24G32    29.83F
WHITEMAN AFB   PTSUNNY   55  30  39 NW17G31   29.82F
WARRENSBURG    PTSUNNY   55  30  38 NW14G22   29.84S
OSAGE BEACH    CLOUDY    55  28  35 W17G25    29.83R

$$
MOZ051-052-059>065-202000-
...EAST CENTRAL MISSOURI...

CITY           SKY/WX    TMP DP  RH WIND       PRES   REMARKS
ST LOUIS INTL  CLOUDY    56  35  45 W23G30    29.75R
SPIRIT OF STL  PTSUNNY   55  31  39 W21G33    29.75R
ST CHARLES     CLOUDY    54  35  48 W22G30    29.74R

$$
MOZ072>076-082>087-097>100-106>115-202000-
...SOUTH CENTRAL AND SOUTHEAST MISSOURI...

CITY           SKY/WX    TMP DP  RH WIND       PRES   REMARKS
CAPE GIRARDEAU PTSUNNY   62  39  42 W13       29.75R
FARMINGTON     PTSUNNY   55  32  41 NW17G24   29.80R
POPLAR BLUFF   LGT RAIN  63  36  36 NW8G21    29.77S
WEST PLAINS    PTSUNNY   59  32  36 NW14G29   29.84R

$$


USA.gov is the U.S. government's official web portal to all federal, state and local government web resources and services.